User: anonymous   Login
Location: Unspecified
(0.0000°N, 0.0000°E)
Time: 14:00:30
(UTC+00:00)
Language:

APRIZESAT 6 - Orbit

View from above orbital plane
View from above orbital plane
View from above satellite
View from above satellite

Ground track
Ground track

The orbit data is extracted from the following two-line orbital elements,

1 37793U 11044F   18050.95358876 +.00000068 +00000-0 +19322-4 0  9999
2 37793 098.3185 189.6891 0047176 010.7094 102.3929 14.72285695349576
Epoch (UTC): 19 February 2018 22:53:10
Eccentricity: 0.0047176
inclination: 98.3185°
perigee height: 620 km
apogee height: 687 km
right ascension of ascending node: 189.6891°
argument of perigee: 10.7094°
revolutions per day: 14.72285695
mean anomaly at epoch: 102.3929°
orbit number at epoch: 34957

The dashed part of the orbit path shows where the satellite is in the earth's shadow,  

DLR